Terminal Aerodrome Forecast
Issued by NWS Key West, FL

Home | Current Version | Previous Version | Text Only | Print | Product List | Glossary On
Versions: 1 2 3 4 5 6 7 8 9 10 11 12 13 14 15 16 17 18 19 20 21 22 23 24 25 26 27 28 29 30 31 32 33 34 35 36 37 38 39 40 41 42 43 44 45 46 47 48
087
FTUS42 KKEY 070527
TAFEYW
TAF
KEYW 070527Z 0706/0806 34011G18KT P6SM VCSH SCT018 OVC050
     FM070900 34015G22KT P6SM VCSH SCT022 SCT035 OVC060
     FM071500 34021G28KT P6SM FEW022 SCT060=

USA.gov is the U.S. government's official web portal to all federal, state and local government web resources and services.